This demonstration page uses our WeatherBlox Daily Observations layout. Learn more.

Left ArrowRight Arrow

39.12711, -84.51439

Hourly Observations for June 12, 2017

Temp ( °F °C ) Dew Point ( °F °C ) Humidity (%) Winds ( mph kmh ) Pressure ( in mb ) Visibility ( mi km ) Precip ( " mm )
12:53 am 00:53 Clear 68 20 64 17.8 87 87 SSW 6 9 30.06 1018 10 16 0.00 0.00
1:53 am 01:53 Clear 67 19.4 63 17.2 87 87 S 6 9 30.05 1018 10 16 0.00 0.00
2:53 am 02:53 Clear 67 19.4 63 17.2 87 87 Calm 30.06 1018 10 16 0.00 0.00
3:53 am 03:53 Cloudy 67 19.4 65 18.3 93 93 Calm 30.08 1019 10 16 0.00 0.00
4:53 am 04:53 Partly Cloudy 66 18.9 65 18.3 96 96 SSW 3 6 30.09 1019 8 13 0.00 0.00
5:53 am 05:53 Mostly Cloudy 66 18.9 65 18.3 96 96 Calm 30.09 1019 8 13 0.00 0.00
6:53 am 06:53 Partly Cloudy 67 19.4 65 18.3 93 93 Calm 30.11 1020 10 16 0.00 0.00
7:53 am 07:53 Sunny 70 21.1 66 18.9 87 87 Calm 30.11 1020 9 14 0.00 0.00
8:53 am 08:53 Mostly Sunny 76 24.4 68 20 77 77 S 6 9 30.12 1020 10 16 0.00 0.00
9:53 am 09:53 Sunny 81 27.2 70 21.1 69 69 SSW 7 11 30.12 1020 10 16 0.00 0.00
10:53 am 10:53 Mostly Sunny 85 29.4 70 21.1 61 61 WSW 8 13 30.10 1019 10 16 0.00 0.00
11:53 am 11:53 Mostly Cloudy 86 30 66 18.9 51 51 SW 10 17 30.09 1019 10 16 0.00 0.00
12:53 pm 12:53 Partly Cloudy 86 30 69 20.6 57 57 SSW 8 13 30.08 1019 10 16 0.00 0.00
1:53 pm 13:53 Mostly Sunny 87 30.6 70 21.1 57 57 S 15 24 30.06 1018 10 16 0.00 0.00
2:53 pm 14:53 Mostly Sunny 88 31.1 71 21.7 57 57 WSW 6 9 30.04 1017 10 16 0.00 0.00
3:53 pm 15:53 Sunny 90 32.2 71 21.7 54 54 SSW 8 13 30.02 1017 10 16 0.00 0.00
4:53 pm 16:53 Partly Cloudy 90 32.2 69 20.6 50 50 WSW 12 19 30.00 1016 10 16 0.00 0.00
5:53 pm 17:53 Mostly Cloudy 85 29.4 69 20.6 59 59 WSW 13 20 29.99 1016 10 16 0.00 0.00
6:53 pm 18:53 Mostly Cloudy 84 28.9 70 21.1 63 63 SSW 9 15 29.98 1015 10 16 0.00 0.00
7:53 pm 19:53 Partly Cloudy 83 28.3 70 21.1 65 65 SW 8 13 29.98 1015 10 16 0.00 0.00
8:53 pm 20:53 Mostly Sunny 80 26.7 72 22.2 76 76 S 5 7 29.98 1015 10 16 0.00 0.00
9:53 pm 21:53 Partly Cloudy 78 25.6 71 21.7 79 79 Calm 29.99 1016 10 16 0.00 0.00
10:53 pm 22:53 Clear 76 24.4 71 21.7 85 85 Calm 30.01 1016 10 16 0.00 0.00
11:53 pm 23:53 Clear 75 23.9 72 22.2 90 90 Calm 30.03 1017 10 16 0.00 0.00

Powered by AerisWeather